Time,TemperatureF,DewpointF,PressureIn,WindDirection,WindDirectionDegrees,WindSpeedMPH,WindSpeedGustMPH,Humidity,HourlyPrecipIn,Conditions,Clouds,dailyrainin,SoftwareType,DateUTC
2013-03-20 00:03:00,25.0,19.0,29.87,NW,325,6.0,18.0,76,0.00,,,0.44,,2013-03-20 04:03:00,
2013-03-20 00:12:00,25.0,19.0,29.87,NW,325,6.0,18.0,76,0.00,,,0.44,,2013-03-20 04:12:00,
2013-03-20 00:23:00,25.0,19.0,29.87,NNW,344,5.0,22.0,77,0.00,,,0.44,,2013-03-20 04:23:00,
2013-03-20 00:32:00,24.0,18.0,29.86,NW,314,12.0,20.0,76,0.00,,,0.44,,2013-03-20 04:32:00,
2013-03-20 00:43:00,24.0,18.0,29.86,NW,314,12.0,20.0,76,0.00,,,0.44,,2013-03-20 04:43:00,
2013-03-20 00:52:00,25.0,19.0,29.86,NW,321,6.0,17.0,76,0.00,,,0.44,,2013-03-20 04:52:00,
2013-03-20 01:03:00,25.0,18.0,29.86,NW,311,4.0,16.0,75,0.00,,,0.44,,2013-03-20 05:03:00,
2013-03-20 01:13:00,25.0,18.0,29.85,NNW,340,17.0,27.0,74,0.00,,,0.44,,2013-03-20 05:13:00,
2013-03-20 01:23:00,25.0,18.0,29.85,NNW,340,17.0,27.0,74,0.00,,,0.44,,2013-03-20 05:23:00,
2013-03-20 01:32:00,24.0,17.0,29.86,NNW,329,9.0,19.0,74,0.00,,,0.44,,2013-03-20 05:32:00,
2013-03-20 01:42:00,24.0,17.0,29.86,NNW,329,9.0,19.0,74,0.00,,,0.44,,2013-03-20 05:42:00,
2013-03-20 01:52:00,24.0,17.0,29.86,NW,304,3.0,18.0,74,0.00,,,0.44,,2013-03-20 05:52:00,
2013-03-20 02:03:00,24.0,17.0,29.86,NNW,342,11.0,19.0,75,0.00,,,0.44,,2013-03-20 06:03:00,
2013-03-20 02:13:00,24.0,17.0,29.86,NNW,342,11.0,19.0,75,0.00,,,0.44,,2013-03-20 06:13:00,
2013-03-20 02:22:00,24.0,17.0,29.87,NW,315,10.0,17.0,74,0.00,,,0.44,,2013-03-20 06:22:00,
2013-03-20 02:32:00,24.0,17.0,29.87,WNW,303,3.0,16.0,74,0.00,,,0.44,,2013-03-20 06:32:00,
2013-03-20 02:42:00,24.0,17.0,29.87,WNW,303,3.0,16.0,74,0.00,,,0.44,,2013-03-20 06:42:00,
2013-03-20 02:52:00,24.0,17.0,29.87,WNW,300,11.0,19.0,74,0.00,,,0.44,,2013-03-20 06:52:00,
2013-03-20 03:02:00,24.0,17.0,29.87,NW,313,7.0,18.0,73,0.00,,,0.44,,2013-03-20 07:02:00,
2013-03-20 03:12:00,24.0,17.0,29.87,NW,313,7.0,18.0,73,0.00,,,0.44,,2013-03-20 07:12:00,
2013-03-20 03:22:00,23.0,16.0,29.86,NNW,327,12.0,19.0,74,0.00,,,0.44,,2013-03-20 07:22:00,
2013-03-20 03:32:00,23.0,16.0,29.86,NNW,344,3.0,15.0,73,0.00,,,0.44,,2013-03-20 07:32:00,
2013-03-20 03:42:00,23.0,16.0,29.86,NNW,344,3.0,15.0,73,0.00,,,0.44,,2013-03-20 07:42:00,
2013-03-20 03:52:00,23.0,16.0,29.86,WNW,294,7.0,13.0,74,0.00,,,0.44,,2013-03-20 07:52:00,
2013-03-20 04:02:00,23.0,16.0,29.86,WNW,298,3.0,14.0,74,0.00,,,0.44,,2013-03-20 08:02:00,
2013-03-20 04:13:00,23.0,16.0,29.86,WNW,298,3.0,14.0,74,0.00,,,0.44,,2013-03-20 08:13:00,
2013-03-20 04:22:00,23.0,16.0,29.86,WNW,298,3.0,14.0,74,0.00,,,0.44,,2013-03-20 08:22:00,
2013-03-20 04:32:00,23.0,16.0,29.85,WNW,287,7.0,18.0,73,0.00,,,0.39,,2013-03-20 08:32:00,
2013-03-20 04:42:00,23.0,16.0,29.85,WNW,287,7.0,18.0,73,0.00,,,0.39,,2013-03-20 08:42:00,
2013-03-20 04:52:00,23.0,16.0,29.85,West,271,5.0,14.0,74,0.00,,,0.36,,2013-03-20 08:52:00,
2013-03-20 05:02:00,23.0,16.0,29.85,NW,309,9.0,14.0,74,0.00,,,0.32,,2013-03-20 09:02:00,
2013-03-20 05:12:00,23.0,16.0,29.85,NW,309,9.0,14.0,74,0.00,,,0.32,,2013-03-20 09:12:00,
2013-03-20 05:22:00,23.0,16.0,29.85,WNW,282,6.0,14.0,74,0.00,,,0.31,,2013-03-20 09:22:00,
2013-03-20 05:33:00,23.0,16.0,29.85,NW,305,7.0,12.0,75,0.00,,,0.27,,2013-03-20 09:33:00,
2013-03-20 05:43:00,23.0,16.0,29.85,NW,305,7.0,12.0,75,0.00,,,0.27,,2013-03-20 09:43:00,
2013-03-20 05:52:00,23.0,17.0,29.85,SW,217,0.0,9.0,76,0.00,,,0.25,,2013-03-20 09:52:00,
2013-03-20 06:03:00,23.0,16.0,29.85,NNW,338,4.0,9.0,75,0.00,,,0.24,,2013-03-20 10:03:00,
2013-03-20 06:13:00,23.0,16.0,29.85,NNW,338,4.0,9.0,75,0.00,,,0.24,,2013-03-20 10:13:00,
2013-03-20 06:23:00,23.0,16.0,29.85,West,259,0.0,6.0,75,0.00,,,0.24,,2013-03-20 10:23:00,
2013-03-20 06:33:00,23.0,17.0,29.86,West,273,1.0,10.0,76,0.00,,,0.23,,2013-03-20 10:33:00,
2013-03-20 06:43:00,23.0,17.0,29.86,West,273,1.0,10.0,76,0.00,,,0.23,,2013-03-20 10:43:00,
2013-03-20 06:52:00,23.0,16.0,29.86,WNW,284,1.0,11.0,75,0.00,,,0.23,,2013-03-20 10:52:00,
2013-03-20 07:03:00,23.0,16.0,29.86,NNW,331,4.0,14.0,75,0.00,,,0.23,,2013-03-20 11:03:00,
2013-03-20 07:12:00,23.0,16.0,29.86,NNW,331,4.0,14.0,75,0.00,,,0.23,,2013-03-20 11:12:00,
2013-03-20 07:22:00,23.0,16.0,29.86,NW,318,4.0,12.0,75,0.00,,,0.23,,2013-03-20 11:22:00,
2013-03-20 07:32:00,23.0,16.0,29.86,WNW,297,2.0,10.0,75,0.00,,,0.23,,2013-03-20 11:32:00,
2013-03-20 07:42:00,23.0,16.0,29.86,WNW,297,2.0,10.0,75,0.00,,,0.23,,2013-03-20 11:42:00,
2013-03-20 07:52:00,22.0,15.0,29.86,West,279,0.0,10.0,75,0.00,,,0.23,,2013-03-20 11:52:00,
2013-03-20 08:02:00,22.0,15.0,29.87,WNW,283,7.0,12.0,75,0.00,,,0.23,,2013-03-20 12:02:00,
2013-03-20 08:12:00,22.0,15.0,29.87,WNW,283,7.0,12.0,75,0.00,,,0.23,,2013-03-20 12:12:00,
2013-03-20 08:22:00,23.0,17.0,29.87,WSW,247,1.0,11.0,76,0.00,,,0.23,,2013-03-20 12:22:00,
2013-03-20 08:33:00,23.0,17.0,29.87,NNW,327,5.0,9.0,76,0.00,,,0.23,,2013-03-20 12:33:00,
2013-03-20 08:42:00,23.0,17.0,29.87,NNW,327,5.0,9.0,76,0.00,,,0.23,,2013-03-20 12:42:00,
2013-03-20 08:52:00,24.0,17.0,29.87,WNW,282,1.0,12.0,74,0.00,,,0.23,,2013-03-20 12:52:00,
2013-03-20 09:03:00,24.0,17.0,29.87,WNW,292,6.0,17.0,75,0.00,,,0.23,,2013-03-20 13:03:00,
2013-03-20 09:12:00,24.0,17.0,29.87,WNW,292,6.0,17.0,75,0.00,,,0.23,,2013-03-20 13:12:00,
2013-03-20 09:22:00,24.0,17.0,29.87,WNW,292,6.0,17.0,75,0.00,,,0.23,,2013-03-20 13:22:00,
2013-03-20 09:32:00,25.0,18.0,29.85,SW,228,7.0,12.0,73,0.00,,,0.23,,2013-03-20 13:32:00,
2013-03-20 09:42:00,25.0,18.0,29.85,SW,228,7.0,12.0,73,0.00,,,0.23,,2013-03-20 13:42:00,
2013-03-20 09:53:00,24.0,16.0,29.85,WSW,240,6.0,19.0,72,0.00,,,0.23,,2013-03-20 13:53:00,
2013-03-20 10:03:00,25.0,17.0,29.85,West,274,0.0,18.0,72,0.00,,,0.22,,2013-03-20 14:03:00,
2013-03-20 10:12:00,25.0,17.0,29.85,West,274,0.0,18.0,72,0.00,,,0.22,,2013-03-20 14:12:00,
2013-03-20 10:23:00,25.0,16.0,29.84,WSW,252,10.0,17.0,68,0.00,,,0.21,,2013-03-20 14:23:00,
2013-03-20 10:34:00,26.0,16.0,29.84,North,355,3.0,19.0,66,0.00,,,0.20,,2013-03-20 14:34:00,
2013-03-20 10:42:00,26.0,16.0,29.84,North,355,3.0,19.0,66,0.00,,,0.20,,2013-03-20 14:42:00,
2013-03-20 10:52:00,26.0,16.0,29.84,NW,323,12.0,21.0,66,0.00,,,0.20,,2013-03-20 14:52:00,
2013-03-20 11:03:00,28.0,18.0,29.83,SW,215,2.0,25.0,66,0.00,,,0.19,,2013-03-20 15:03:00,
2013-03-20 11:12:00,28.0,18.0,29.83,West,265,3.0,17.0,65,0.00,,,0.18,,2013-03-20 15:12:00,
2013-03-20 11:22:00,28.0,18.0,29.83,West,265,3.0,17.0,65,0.00,,,0.18,,2013-03-20 15:22:00,
2013-03-20 11:33:00,29.0,18.0,29.82,WSW,248,3.0,22.0,62,0.00,,,0.17,,2013-03-20 15:33:00,
2013-03-20 11:43:00,29.0,18.0,29.82,WSW,248,3.0,22.0,62,0.00,,,0.17,,2013-03-20 15:43:00,
2013-03-20 11:52:00,30.0,19.0,29.82,WNW,284,3.0,16.0,63,0.00,,,0.16,,2013-03-20 15:52:00,
2013-03-20 12:03:00,29.0,18.0,29.80,NNW,327,5.0,22.0,62,0.00,,,0.15,,2013-03-20 16:03:00,
2013-03-20 12:13:00,29.0,18.0,29.80,NNW,327,5.0,22.0,62,0.00,,,0.15,,2013-03-20 16:13:00,
2013-03-20 12:23:00,30.0,19.0,29.81,SW,216,1.0,18.0,62,0.00,,,0.15,,2013-03-20 16:23:00,
2013-03-20 12:33:00,30.0,19.0,29.80,NW,306,5.0,14.0,62,0.00,,,0.14,,2013-03-20 16:33:00,
2013-03-20 12:43:00,30.0,19.0,29.80,NW,306,5.0,14.0,62,0.00,,,0.14,,2013-03-20 16:43:00,
2013-03-20 12:52:00,29.0,18.0,29.79,NNW,328,18.0,19.0,62,0.00,,,0.14,,2013-03-20 16:52:00,
2013-03-20 13:03:00,30.0,18.0,29.80,WSW,244,12.0,20.0,60,0.00,,,0.12,,2013-03-20 17:03:00,
2013-03-20 13:12:00,30.0,18.0,29.80,WSW,244,12.0,20.0,60,0.00,,,0.12,,2013-03-20 17:12:00,
2013-03-20 13:22:00,30.0,18.0,29.80,WSW,244,12.0,20.0,60,0.00,,,0.12,,2013-03-20 17:22:00,
2013-03-20 13:32:00,31.0,19.0,29.78,West,278,7.0,24.0,61,0.00,,,0.10,,2013-03-20 17:32:00,
2013-03-20 13:42:00,31.0,19.0,29.78,West,278,7.0,24.0,61,0.00,,,0.10,,2013-03-20 17:42:00,
2013-03-20 13:53:00,31.0,18.0,29.78,SW,230,13.0,18.0,59,0.01,,,0.10,,2013-03-20 17:53:00,
2013-03-20 14:02:00,31.0,19.0,29.77,WSW,257,9.0,16.0,61,0.01,,,0.09,,2013-03-20 18:02:00,
2013-03-20 14:12:00,31.0,19.0,29.77,WSW,257,9.0,16.0,61,0.01,,,0.09,,2013-03-20 18:12:00,
2013-03-20 14:22:00,32.0,20.0,29.77,West,261,5.0,20.0,60,0.01,,,0.08,,2013-03-20 18:22:00,
2013-03-20 14:34:00,32.0,19.0,29.76,NNW,332,7.0,25.0,58,0.01,,,0.07,,2013-03-20 18:34:00,
2013-03-20 14:43:00,32.0,19.0,29.76,NNW,332,7.0,25.0,58,0.01,,,0.07,,2013-03-20 18:43:00,
2013-03-20 14:52:00,32.0,19.0,29.76,NNW,332,7.0,25.0,58,0.01,,,0.07,,2013-03-20 18:52:00,
2013-03-20 15:02:00,32.0,19.0,29.76,NNW,332,7.0,25.0,58,0.01,,,0.07,,2013-03-20 19:02:00,
2013-03-20 17:23:00,29.0,23.0,29.72,NW,305,3.0,16.0,77,0.01,,,0.03,,2013-03-20 21:23:00,
2013-03-20 17:33:00,28.0,24.0,29.72,NW,322,6.0,18.0,83,0.00,,,0.03,,2013-03-20 21:33:00,
2013-03-20 17:42:00,28.0,24.0,29.72,NW,322,6.0,18.0,83,0.00,,,0.03,,2013-03-20 21:42:00,
2013-03-20 17:52:00,28.0,24.0,29.72,West,263,4.0,11.0,84,0.00,,,0.02,,2013-03-20 21:52:00,
2013-03-20 18:03:00,28.0,23.0,29.72,WNW,292,0.0,13.0,81,0.00,,,0.02,,2013-03-20 22:03:00,
2013-03-20 18:13:00,28.0,23.0,29.72,WNW,292,0.0,13.0,81,0.00,,,0.02,,2013-03-20 22:13:00,
2013-03-20 18:23:00,28.0,23.0,29.72,West,262,6.0,18.0,80,0.00,,,0.02,,2013-03-20 22:23:00,
2013-03-20 18:33:00,28.0,23.0,29.71,NNW,337,5.0,13.0,80,0.00,,,0.02,,2013-03-20 22:33:00,
2013-03-20 18:42:00,28.0,23.0,29.71,NNW,337,5.0,13.0,80,0.00,,,0.02,,2013-03-20 22:42:00,
2013-03-20 18:52:00,28.0,22.0,29.71,West,267,15.0,21.0,77,0.00,,,0.02,,2013-03-20 22:52:00,
2013-03-20 19:03:00,28.0,21.0,29.71,WSW,238,6.0,18.0,76,0.00,,,0.02,,2013-03-20 23:03:00,
2013-03-20 19:12:00,28.0,21.0,29.71,WSW,238,6.0,18.0,76,0.00,,,0.02,,2013-03-20 23:12:00,
2013-03-20 19:23:00,28.0,20.0,29.72,West,265,7.0,17.0,73,0.00,,,0.02,,2013-03-20 23:23:00,
2013-03-20 19:32:00,28.0,20.0,29.72,WNW,290,9.0,16.0,71,0.00,,,0.02,,2013-03-20 23:32:00,
2013-03-20 19:42:00,28.0,20.0,29.72,WNW,290,9.0,16.0,71,0.00,,,0.02,,2013-03-20 23:42:00,
2013-03-20 19:52:00,27.0,20.0,29.72,North,355,5.0,13.0,74,0.00,,,0.02,,2013-03-20 23:52:00,
2013-03-20 20:03:00,27.0,20.0,29.72,NW,321,1.0,20.0,76,0.00,,,0.02,,2013-03-21 00:03:00,
2013-03-20 20:13:00,27.0,20.0,29.72,NW,321,1.0,20.0,76,0.00,,,0.02,,2013-03-21 00:13:00,
2013-03-20 20:23:00,26.0,20.0,29.74,NW,311,6.0,19.0,77,0.00,,,0.02,,2013-03-21 00:23:00,
2013-03-20 20:33:00,25.0,20.0,29.74,SW,235,2.0,20.0,81,0.00,,,0.02,,2013-03-21 00:33:00,
2013-03-20 20:42:00,25.0,20.0,29.74,SW,235,2.0,20.0,81,0.00,,,0.02,,2013-03-21 00:42:00,
2013-03-20 20:52:00,25.0,20.0,29.75,NNW,337,3.0,18.0,80,0.00,,,0.02,,2013-03-21 00:52:00,
2013-03-20 21:02:00,24.0,20.0,29.75,North,5,2.0,18.0,84,0.00,,,0.02,,2013-03-21 01:02:00,
2013-03-20 21:12:00,24.0,20.0,29.75,North,5,2.0,18.0,84,0.00,,,0.02,,2013-03-21 01:12:00,
2013-03-20 21:22:00,24.0,20.0,29.75,WNW,284,1.0,10.0,83,0.00,,,0.02,,2013-03-21 01:22:00,
2013-03-20 21:33:00,24.0,20.0,29.76,NE,42,9.0,18.0,83,0.00,,,0.02,,2013-03-21 01:33:00,
2013-03-20 21:42:00,24.0,20.0,29.76,NE,42,9.0,18.0,83,0.00,,,0.02,,2013-03-21 01:42:00,
2013-03-20 21:52:00,23.0,19.0,29.76,West,270,4.0,13.0,84,0.00,,,0.02,,2013-03-21 01:52:00,
2013-03-20 22:03:00,23.0,19.0,29.76,NNE,26,6.0,14.0,84,0.00,,,0.02,,2013-03-21 02:03:00,
2013-03-20 22:13:00,23.0,19.0,29.76,NNE,26,6.0,14.0,84,0.00,,,0.02,,2013-03-21 02:13:00,
2013-03-20 22:22:00,22.0,19.0,29.76,SSW,200,0.0,10.0,87,0.00,,,0.02,,2013-03-21 02:22:00,
2013-03-20 22:33:00,22.0,20.0,29.77,SW,222,0.0,12.0,90,0.00,,,0.02,,2013-03-21 02:33:00,
2013-03-20 22:42:00,22.0,20.0,29.77,SW,222,0.0,12.0,90,0.00,,,0.02,,2013-03-21 02:42:00,
2013-03-20 22:52:00,22.0,20.0,29.77,SW,222,0.0,12.0,90,0.00,,,0.02,,2013-03-21 02:52:00,
2013-03-20 23:02:00,21.0,19.0,29.77,NNW,327,11.0,11.0,92,0.00,,,0.02,,2013-03-21 03:02:00,
2013-03-20 23:12:00,21.0,19.0,29.77,NNW,327,11.0,11.0,92,0.00,,,0.02,,2013-03-21 03:12:00,
2013-03-20 23:22:00,21.0,19.0,29.77,NW,316,4.0,12.0,93,0.00,,,0.02,,2013-03-21 03:22:00,
2013-03-20 23:33:00,21.0,19.0,29.77,WNW,298,0.0,6.0,92,0.00,,,0.02,,2013-03-21 03:33:00,
2013-03-20 23:43:00,21.0,19.0,29.77,WNW,298,0.0,6.0,92,0.00,,,0.02,,2013-03-21 03:43:00,
2013-03-20 23:53:00,21.0,19.0,29.76,WSW,257,1.0,7.0,91,0.00,,,0.02,,2013-03-21 03:53:00,